Location: Sternwarte ZA, Rosenfeld-Brittheim
(48.2889°N, 8.6789°E)
Time: 20:27:15
(UTC+02:00)

ISS - Pass Details

Date: 13 July 2019
Orbit: 409 x 418 km, 51.6° (Epoch: 20 July)

Event Time Altitude Azimuth Distance (km) Brightness Sun altitude
Exits shadow 00:51:39 18° 85° (E) 1,104 -1.7 -19.3°
Drops below altitude 10° 00:52:41 10° 77° (ENE) 1,483 -0.9 -19.3°
Sets 00:54:50 0° 69° (ENE) 2,346 0.2 -19.3°
